Time,TemperatureF,DewpointF,PressureIn,WindDirection,WindDirectionDegrees,WindSpeedMPH,WindSpeedGustMPH,Humidity,HourlyPrecipIn,Conditions,Clouds,dailyrainin,SoftwareType,DateUTC
2013-05-01 00:00:00,37.5,36.7,30.05,North,359,0.0,0.0,97,0.00,,,0.00,Weather View 32 v70,2013-05-01 06:00:00,
2013-05-01 00:05:00,37.5,36.7,30.06,North,359,0.0,0.0,97,0.00,,,0.00,Weather View 32 v70,2013-05-01 06:05:00,
2013-05-01 00:10:00,37.4,36.7,30.05,North,359,0.0,0.0,97,0.01,,,0.01,Weather View 32 v70,2013-05-01 06:10:00,
2013-05-01 00:15:00,37.4,36.7,30.05,North,359,0.0,0.0,97,0.01,,,0.01,Weather View 32 v70,2013-05-01 06:15:00,
2013-05-01 00:25:00,37.3,36.6,30.05,North,359,0.0,0.0,97,0.01,,,0.01,Weather View 32 v70,2013-05-01 06:25:00,
2013-05-01 00:30:00,37.3,36.6,30.06,North,359,0.0,0.0,97,0.02,,,0.02,Weather View 32 v70,2013-05-01 06:30:00,
2013-05-01 00:35:00,37.4,36.8,30.06,North,359,0.0,0.0,98,0.02,,,0.02,Weather View 32 v70,2013-05-01 06:35:00,
2013-05-01 00:40:00,37.3,36.7,30.07,North,359,0.0,0.0,98,0.02,,,0.02,Weather View 32 v70,2013-05-01 06:40:00,
2013-05-01 00:50:00,37.3,36.8,30.06,North,359,0.0,0.0,98,0.03,,,0.03,Weather View 32 v70,2013-05-01 06:50:00,
2013-05-01 00:55:00,37.4,36.9,30.06,North,359,0.0,0.0,98,0.03,,,0.03,Weather View 32 v70,2013-05-01 06:55:00,
2013-05-01 01:00:00,37.5,37.0,30.06,North,359,0.0,0.0,98,0.03,,,0.03,Weather View 32 v70,2013-05-01 07:00:00,
2013-05-01 01:05:00,37.5,37.0,30.06,North,359,0.0,0.0,98,0.03,,,0.03,Weather View 32 v70,2013-05-01 07:05:00,
2013-05-01 01:15:00,37.4,36.9,30.07,North,359,0.0,0.0,98,0.02,,,0.03,Weather View 32 v70,2013-05-01 07:15:00,
2013-05-01 01:20:00,37.5,37.0,30.08,North,359,0.0,0.0,98,0.03,,,0.04,Weather View 32 v70,2013-05-01 07:20:00,
2013-05-01 01:25:00,37.6,37.2,30.08,North,359,0.0,0.0,98,0.03,,,0.04,Weather View 32 v70,2013-05-01 07:25:00,
2013-05-01 01:35:00,37.6,37.2,30.08,North,359,0.0,0.0,98,0.03,,,0.05,Weather View 32 v70,2013-05-01 07:35:00,
2013-05-01 01:40:00,37.6,37.2,30.07,North,359,0.0,0.0,98,0.03,,,0.05,Weather View 32 v70,2013-05-01 07:40:00,
2013-05-01 01:45:00,37.4,36.9,30.08,North,359,0.0,0.0,98,0.03,,,0.06,Weather View 32 v70,2013-05-01 07:45:00,
2013-05-01 01:50:00,37.3,36.9,30.08,North,359,0.0,0.0,98,0.03,,,0.06,Weather View 32 v70,2013-05-01 07:50:00,
2013-05-01 01:55:00,37.2,36.7,30.08,North,359,0.0,0.0,98,0.03,,,0.06,Weather View 32 v70,2013-05-01 07:55:00,
2013-05-01 02:05:00,37.2,36.8,30.07,North,359,0.0,0.0,98,0.04,,,0.07,Weather View 32 v70,2013-05-01 08:05:00,
2013-05-01 02:10:00,37.2,36.8,30.07,North,359,0.0,0.0,98,0.04,,,0.07,Weather View 32 v70,2013-05-01 08:10:00,
2013-05-01 02:15:00,37.1,36.7,30.07,North,359,0.0,0.0,99,0.04,,,0.07,Weather View 32 v70,2013-05-01 08:15:00,
2013-05-01 02:20:00,37.1,36.7,30.07,North,359,0.0,0.0,99,0.03,,,0.07,Weather View 32 v70,2013-05-01 08:20:00,
2013-05-01 02:25:00,37.1,36.8,30.07,North,359,0.0,0.0,99,0.03,,,0.07,Weather View 32 v70,2013-05-01 08:25:00,
2013-05-01 02:35:00,36.9,36.6,30.07,North,359,0.0,0.0,99,0.02,,,0.07,Weather View 32 v70,2013-05-01 08:35:00,
2013-05-01 02:40:00,37.0,36.7,30.07,North,359,0.0,0.0,99,0.02,,,0.07,Weather View 32 v70,2013-05-01 08:40:00,
2013-05-01 02:45:00,37.0,36.7,30.08,North,359,0.0,0.0,99,0.01,,,0.07,Weather View 32 v70,2013-05-01 08:45:00,
2013-05-01 02:50:00,37.1,36.8,30.08,North,359,0.0,0.0,99,0.02,,,0.08,Weather View 32 v70,2013-05-01 08:50:00,
2013-05-01 03:00:00,37.3,37.0,30.08,North,359,0.0,0.0,99,0.01,,,0.08,Weather View 32 v70,2013-05-01 09:00:00,
2013-05-01 03:05:00,37.3,37.0,30.08,North,359,0.0,0.0,99,0.01,,,0.08,Weather View 32 v70,2013-05-01 09:05:00,
2013-05-01 03:10:00,37.3,37.0,30.08,North,359,0.0,0.0,99,0.01,,,0.08,Weather View 32 v70,2013-05-01 09:10:00,
2013-05-01 03:15:00,37.3,37.0,30.08,North,359,0.0,0.0,99,0.02,,,0.09,Weather View 32 v70,2013-05-01 09:15:00,
2013-05-01 03:20:00,37.1,36.8,30.09,North,359,0.0,0.0,99,0.02,,,0.09,Weather View 32 v70,2013-05-01 09:20:00,
2013-05-01 03:30:00,36.0,35.7,30.10,North,359,0.0,0.0,99,0.04,,,0.11,Weather View 32 v70,2013-05-01 09:30:00,
2013-05-01 03:35:00,35.4,35.1,30.11,North,359,0.0,0.0,99,0.04,,,0.11,Weather View 32 v70,2013-05-01 09:35:00,
2013-05-01 03:40:00,34.8,34.5,30.12,North,359,0.0,0.0,99,0.04,,,0.11,Weather View 32 v70,2013-05-01 09:40:00,
2013-05-01 03:45:00,34.3,34.0,30.12,North,359,0.0,0.0,99,0.04,,,0.11,Weather View 32 v70,2013-05-01 09:45:00,
2013-05-01 03:55:00,33.8,33.6,30.13,North,359,0.0,0.0,99,0.04,,,0.12,Weather View 32 v70,2013-05-01 09:55:00,
2013-05-01 04:05:00,33.7,33.5,30.14,North,359,0.0,0.0,99,0.05,,,0.13,Weather View 32 v70,2013-05-01 10:05:00,
2013-05-01 04:10:00,33.5,33.3,30.14,North,359,0.0,0.0,99,0.05,,,0.13,Weather View 32 v70,2013-05-01 10:10:00,
2013-05-01 04:15:00,33.3,33.2,30.14,North,359,0.0,0.0,99,0.04,,,0.13,Weather View 32 v70,2013-05-01 10:15:00,
2013-05-01 04:20:00,33.2,33.1,30.15,North,359,0.0,0.0,100,0.05,,,0.14,Weather View 32 v70,2013-05-01 10:20:00,
2013-05-01 04:30:00,33.2,33.1,30.15,North,359,0.0,0.0,100,0.03,,,0.14,Weather View 32 v70,2013-05-01 10:30:00,
2013-05-01 04:35:00,33.1,33.0,30.15,North,359,0.0,0.0,100,0.03,,,0.14,Weather View 32 v70,2013-05-01 10:35:00,
2013-05-01 04:40:00,33.0,32.9,30.15,North,359,0.0,0.0,100,0.03,,,0.14,Weather View 32 v70,2013-05-01 10:40:00,
2013-05-01 04:45:00,32.9,32.8,30.15,North,359,0.0,0.0,100,0.03,,,0.14,Weather View 32 v70,2013-05-01 10:45:00,
2013-05-01 04:50:00,32.8,32.7,30.15,North,359,0.0,0.0,100,0.03,,,0.14,Weather View 32 v70,2013-05-01 10:50:00,
2013-05-01 04:56:00,32.8,32.7,30.15,North,359,0.0,0.0,100,0.02,,,0.14,Weather View 32 v70,2013-05-01 10:56:00,
2013-05-01 05:05:00,32.8,32.7,30.15,North,359,0.0,0.0,100,0.01,,,0.14,Weather View 32 v70,2013-05-01 11:05:00,
2013-05-01 05:10:00,32.8,32.8,30.16,North,359,0.0,0.0,100,0.01,,,0.14,Weather View 32 v70,2013-05-01 11:10:00,
2013-05-01 05:15:00,32.8,32.8,30.16,North,359,0.0,0.0,100,0.01,,,0.14,Weather View 32 v70,2013-05-01 11:15:00,
2013-05-01 05:20:00,32.8,32.8,30.17,North,359,0.0,0.0,100,0.00,,,0.14,Weather View 32 v70,2013-05-01 11:20:00,
2013-05-01 05:30:00,32.6,32.6,30.18,North,359,0.0,0.0,100,0.00,,,0.14,Weather View 32 v70,2013-05-01 11:30:00,
2013-05-01 05:35:00,32.4,32.4,30.18,North,359,0.0,0.0,100,0.00,,,0.14,Weather View 32 v70,2013-05-01 11:35:00,
2013-05-01 05:40:00,32.4,32.4,30.19,North,359,0.0,0.0,100,0.00,,,0.14,Weather View 32 v70,2013-05-01 11:40:00,
2013-05-01 05:45:00,32.3,32.3,30.19,North,359,0.0,0.0,100,0.00,,,0.14,Weather View 32 v70,2013-05-01 11:45:00,
2013-05-01 05:50:00,32.2,32.2,30.19,North,359,0.0,0.0,100,0.00,,,0.14,Weather View 32 v70,2013-05-01 11:50:00,
2013-05-01 05:55:00,32.2,32.2,30.19,North,359,0.0,0.0,100,0.00,,,0.14,Weather View 32 v70,2013-05-01 11:55:00,
2013-05-01 06:00:00,32.1,32.1,30.19,North,359,0.0,0.0,100,0.00,,,0.14,Weather View 32 v70,2013-05-01 12:00:00,
2013-05-01 06:10:00,32.2,32.2,30.18,North,359,0.0,0.0,100,0.00,,,0.14,Weather View 32 v70,2013-05-01 12:10:00,
2013-05-01 06:15:00,32.2,32.2,30.18,North,359,0.0,0.0,100,0.00,,,0.14,Weather View 32 v70,2013-05-01 12:15:00,
2013-05-01 06:20:00,32.2,32.2,30.18,North,359,0.0,0.0,100,0.00,,,0.14,Weather View 32 v70,2013-05-01 12:20:00,
2013-05-01 06:25:00,32.2,32.2,30.18,North,359,0.0,0.0,100,0.00,,,0.14,Weather View 32 v70,2013-05-01 12:25:00,
2013-05-01 06:30:00,32.2,32.2,30.19,North,359,0.0,0.0,100,0.00,,,0.14,Weather View 32 v70,2013-05-01 12:30:00,
2013-05-01 06:35:00,32.2,32.2,30.19,North,359,0.0,0.0,100,0.00,,,0.14,Weather View 32 v70,2013-05-01 12:35:00,
2013-05-01 06:45:00,32.1,32.1,30.20,North,359,0.0,0.0,100,0.00,,,0.14,Weather View 32 v70,2013-05-01 12:45:00,
2013-05-01 06:50:00,32.2,32.2,30.19,North,359,0.0,0.0,100,0.00,,,0.14,Weather View 32 v70,2013-05-01 12:50:00,
2013-05-01 06:55:00,32.1,32.1,30.19,North,359,0.0,0.0,100,0.00,,,0.14,Weather View 32 v70,2013-05-01 12:55:00,
2013-05-01 07:00:00,32.2,32.2,30.20,North,359,0.0,0.0,100,0.00,,,0.14,Weather View 32 v70,2013-05-01 13:00:00,
2013-05-01 07:05:00,32.1,32.1,30.21,North,359,0.0,0.0,100,0.00,,,0.14,Weather View 32 v70,2013-05-01 13:05:00,
2013-05-01 07:10:00,32.1,32.1,30.21,North,359,0.0,0.0,100,0.00,,,0.14,Weather View 32 v70,2013-05-01 13:10:00,
2013-05-01 07:20:00,32.1,32.1,30.21,North,359,0.0,0.0,100,0.00,,,0.14,Weather View 32 v70,2013-05-01 13:20:00,
2013-05-01 07:25:00,32.1,32.1,30.21,North,359,0.0,0.0,100,0.00,,,0.14,Weather View 32 v70,2013-05-01 13:25:00,
2013-05-01 07:30:00,32.1,32.1,30.22,North,359,0.0,0.0,100,0.00,,,0.14,Weather View 32 v70,2013-05-01 13:30:00,
2013-05-01 07:35:00,32.1,32.1,30.22,North,359,0.0,0.0,100,0.00,,,0.14,Weather View 32 v70,2013-05-01 13:35:00,
2013-05-01 07:40:00,32.0,32.0,30.22,North,359,0.0,0.0,100,0.00,,,0.14,Weather View 32 v70,2013-05-01 13:40:00,
2013-05-01 07:45:00,32.0,32.0,30.23,North,359,0.0,0.0,100,0.00,,,0.14,Weather View 32 v70,2013-05-01 13:45:00,
2013-05-01 07:55:00,32.1,32.1,30.23,North,359,0.0,0.0,100,0.00,,,0.14,Weather View 32 v70,2013-05-01 13:55:00,
2013-05-01 08:00:00,32.0,32.0,30.23,North,359,0.0,0.0,100,0.00,,,0.14,Weather View 32 v70,2013-05-01 14:00:00,
2013-05-01 08:05:00,31.9,31.9,30.23,North,359,0.0,0.0,100,0.00,,,0.14,Weather View 32 v70,2013-05-01 14:05:00,
2013-05-01 08:10:00,31.9,31.9,30.23,North,359,0.0,0.0,100,0.00,,,0.14,Weather View 32 v70,2013-05-01 14:10:00,
2013-05-01 08:15:00,31.9,31.9,30.23,North,359,0.0,0.0,100,0.00,,,0.14,Weather View 32 v70,2013-05-01 14:15:00,
2013-05-01 08:25:00,31.6,31.6,30.24,North,359,0.0,0.0,100,0.00,,,0.14,Weather View 32 v70,2013-05-01 14:25:00,
2013-05-01 08:30:00,31.4,31.4,30.24,North,359,0.0,0.0,100,0.00,,,0.14,Weather View 32 v70,2013-05-01 14:30:00,
2013-05-01 08:35:00,31.3,31.3,30.24,North,359,0.0,0.0,100,0.00,,,0.14,Weather View 32 v70,2013-05-01 14:35:00,
2013-05-01 08:40:00,31.3,31.3,30.24,North,359,0.0,0.0,100,0.00,,,0.14,Weather View 32 v70,2013-05-01 14:40:00,
2013-05-01 08:45:00,31.3,31.3,30.25,North,359,0.0,0.0,100,0.00,,,0.14,Weather View 32 v70,2013-05-01 14:45:00,
2013-05-01 08:55:00,31.5,31.5,30.26,North,359,0.0,0.0,100,0.00,,,0.14,Weather View 32 v70,2013-05-01 14:55:00,
2013-05-01 09:00:00,31.4,31.4,30.25,North,359,0.0,0.0,100,0.00,,,0.14,Weather View 32 v70,2013-05-01 15:00:00,
2013-05-01 09:05:00,31.4,31.4,30.25,North,359,0.0,0.0,100,0.00,,,0.14,Weather View 32 v70,2013-05-01 15:05:00,
2013-05-01 09:10:00,31.2,31.2,30.26,North,359,0.0,0.0,100,0.00,,,0.14,Weather View 32 v70,2013-05-01 15:10:00,
2013-05-01 09:15:00,31.2,31.2,30.26,North,359,0.0,0.0,100,0.00,,,0.14,Weather View 32 v70,2013-05-01 15:15:00,
2013-05-01 09:20:00,31.2,31.2,30.26,North,359,0.0,0.0,100,0.00,,,0.14,Weather View 32 v70,2013-05-01 15:20:00,
2013-05-01 09:30:00,31.4,31.4,30.26,North,359,0.0,0.0,100,0.00,,,0.14,Weather View 32 v70,2013-05-01 15:30:00,
2013-05-01 09:35:00,31.5,31.5,30.26,North,359,0.0,0.0,100,0.00,,,0.14,Weather View 32 v70,2013-05-01 15:35:00,
2013-05-01 09:40:00,31.5,31.5,30.26,North,359,0.0,0.0,100,0.00,,,0.14,Weather View 32 v70,2013-05-01 15:40:00,
2013-05-01 09:50:00,31.6,31.6,30.27,North,359,0.0,0.0,100,0.00,,,0.14,Weather View 32 v70,2013-05-01 15:50:00,
2013-05-01 09:55:00,31.7,31.7,30.28,North,359,0.0,0.0,100,0.00,,,0.14,Weather View 32 v70,2013-05-01 15:55:00,
2013-05-01 10:00:00,31.7,31.7,30.28,North,359,0.0,0.0,100,0.00,,,0.14,Weather View 32 v70,2013-05-01 16:00:00,
2013-05-01 10:05:00,31.7,31.7,30.28,North,359,0.0,0.0,100,0.00,,,0.14,Weather View 32 v70,2013-05-01 16:05:00,
2013-05-01 10:10:00,31.8,31.8,30.28,North,359,0.0,0.0,100,0.00,,,0.14,Weather View 32 v70,2013-05-01 16:10:00,
2013-05-01 10:20:00,32.1,32.1,30.29,North,359,0.0,0.0,100,0.00,,,0.14,Weather View 32 v70,2013-05-01 16:20:00,
2013-05-01 10:25:00,32.0,32.0,30.29,North,359,0.0,0.0,100,0.00,,,0.14,Weather View 32 v70,2013-05-01 16:25:00,
2013-05-01 10:30:00,32.0,32.0,30.29,North,359,0.0,0.0,100,0.00,,,0.14,Weather View 32 v70,2013-05-01 16:30:00,
2013-05-01 10:35:00,31.8,31.8,30.29,North,359,0.0,0.0,100,0.00,,,0.14,Weather View 32 v70,2013-05-01 16:35:00,
2013-05-01 10:40:00,31.5,31.5,30.30,North,359,0.0,0.0,100,0.00,,,0.14,Weather View 32 v70,2013-05-01 16:40:00,
2013-05-01 10:50:00,31.4,31.4,30.29,North,359,0.0,0.0,100,0.00,,,0.14,Weather View 32 v70,2013-05-01 16:50:00,
2013-05-01 10:55:00,31.5,31.5,30.30,North,359,0.0,0.0,100,0.00,,,0.14,Weather View 32 v70,2013-05-01 16:55:00,
2013-05-01 11:00:00,31.3,31.3,30.31,North,359,0.0,0.0,100,0.00,,,0.14,Weather View 32 v70,2013-05-01 17:00:00,
2013-05-01 11:05:00,31.0,31.0,30.31,North,359,0.0,0.0,100,0.00,,,0.14,Weather View 32 v70,2013-05-01 17:05:00,
2013-05-01 11:10:00,31.0,31.0,30.31,North,359,0.0,0.0,100,0.00,,,0.14,Weather View 32 v70,2013-05-01 17:10:00,
2013-05-01 11:20:00,31.0,31.0,30.32,North,359,0.0,0.0,100,0.00,,,0.14,Weather View 32 v70,2013-05-01 17:20:00,
2013-05-01 11:25:00,31.0,31.0,30.32,North,359,0.0,0.0,100,0.01,,,0.15,Weather View 32 v70,2013-05-01 17:25:00,
2013-05-01 11:30:00,31.2,31.2,30.32,North,359,0.0,0.0,100,0.01,,,0.15,Weather View 32 v70,2013-05-01 17:30:00,
2013-05-01 11:40:00,31.3,31.3,30.32,North,359,0.0,0.0,100,0.01,,,0.15,Weather View 32 v70,2013-05-01 17:40:00,
2013-05-01 11:45:00,31.4,31.4,30.33,North,359,0.0,0.0,100,0.01,,,0.15,Weather View 32 v70,2013-05-01 17:45:00,
2013-05-01 11:50:00,31.3,31.3,30.33,North,359,0.0,0.0,100,0.01,,,0.15,Weather View 32 v70,2013-05-01 17:50:00,
2013-05-01 11:55:00,31.1,31.1,30.33,North,359,0.0,0.0,100,0.01,,,0.15,Weather View 32 v70,2013-05-01 17:55:00,
2013-05-01 12:00:00,30.7,30.7,30.34,North,359,0.0,0.0,100,0.01,,,0.15,Weather View 32 v70,2013-05-01 18:00:00,
2013-05-01 12:10:00,29.7,29.7,30.34,North,352,2.0,2.0,100,0.02,,,0.16,Weather View 32 v70,2013-05-01 18:10:00,
2013-05-01 12:15:00,29.0,29.0,30.34,North,352,0.0,2.0,100,0.02,,,0.16,Weather View 32 v70,2013-05-01 18:15:00,
2013-05-01 12:20:00,29.0,29.0,30.34,North,352,0.0,2.0,100,0.02,,,0.16,Weather View 32 v70,2013-05-01 18:20:00,
2013-05-01 12:25:00,29.3,29.3,30.34,North,352,0.0,2.0,100,0.01,,,0.16,Weather View 32 v70,2013-05-01 18:25:00,
2013-05-01 12:30:00,29.6,29.6,30.34,North,352,0.0,2.0,100,0.01,,,0.16,Weather View 32 v70,2013-05-01 18:30:00,
2013-05-01 12:35:00,29.6,29.6,30.34,North,352,0.0,2.0,100,0.02,,,0.17,Weather View 32 v70,2013-05-01 18:35:00,
2013-05-01 12:45:00,29.4,29.4,30.35,North,359,0.0,2.0,100,0.02,,,0.17,Weather View 32 v70,2013-05-01 18:45:00,
2013-05-01 12:50:00,29.2,29.2,30.35,North,359,0.0,2.0,100,0.02,,,0.17,Weather View 32 v70,2013-05-01 18:50:00,
2013-05-01 12:55:00,29.1,29.1,30.36,North,359,0.0,2.0,100,0.02,,,0.17,Weather View 32 v70,2013-05-01 18:55:00,
2013-05-01 13:00:00,29.3,29.3,30.36,North,359,0.0,2.0,100,0.02,,,0.17,Weather View 32 v70,2013-05-01 19:00:00,
2013-05-01 13:10:00,29.3,29.3,30.37,North,359,0.0,2.0,100,0.01,,,0.17,Weather View 32 v70,2013-05-01 19:10:00,
2013-05-01 13:15:00,29.5,29.5,30.36,North,359,0.0,0.0,100,0.02,,,0.18,Weather View 32 v70,2013-05-01 19:15:00,
2013-05-01 13:20:00,29.7,29.7,30.37,North,359,0.0,0.0,100,0.02,,,0.18,Weather View 32 v70,2013-05-01 19:20:00,
2013-05-01 13:25:00,29.9,29.8,30.37,North,359,0.0,0.0,100,0.02,,,0.18,Weather View 32 v70,2013-05-01 19:25:00,
2013-05-01 13:30:00,30.0,29.9,30.37,North,359,0.0,0.0,100,0.02,,,0.18,Weather View 32 v70,2013-05-01 19:30:00,
2013-05-01 13:40:00,30.1,30.0,30.37,North,349,0.0,0.0,100,0.02,,,0.19,Weather View 32 v70,2013-05-01 19:40:00,
2013-05-01 13:45:00,30.2,30.1,30.37,North,359,0.0,1.0,99,0.02,,,0.19,Weather View 32 v70,2013-05-01 19:45:00,
2013-05-01 13:50:00,30.2,30.0,30.37,North,359,0.0,1.0,99,0.02,,,0.19,Weather View 32 v70,2013-05-01 19:50:00,
2013-05-01 13:55:00,30.3,30.1,30.37,North,359,0.0,3.0,99,0.02,,,0.19,Weather View 32 v70,2013-05-01 19:55:00,
2013-05-01 14:01:00,30.2,30.0,30.38,North,359,0.0,3.0,99,0.02,,,0.19,Weather View 32 v70,2013-05-01 20:01:00,
2013-05-01 14:10:00,30.1,29.9,30.39,North,359,0.0,3.0,99,0.03,,,0.20,Weather View 32 v70,2013-05-01 20:10:00,
2013-05-01 14:15:00,30.0,29.8,30.39,North,359,0.0,3.0,99,0.02,,,0.20,Weather View 32 v70,2013-05-01 20:15:00,
2013-05-01 14:20:00,30.0,29.8,30.38,North,359,0.0,3.0,99,0.02,,,0.20,Weather View 32 v70,2013-05-01 20:20:00,
2013-05-01 14:25:00,30.2,30.0,30.39,North,359,0.0,3.0,99,0.02,,,0.20,Weather View 32 v70,2013-05-01 20:25:00,
2013-05-01 14:35:00,30.3,29.9,30.39,ESE,104,0.0,3.0,98,0.03,,,0.21,Weather View 32 v70,2013-05-01 20:35:00,
2013-05-01 14:40:00,30.5,30.0,30.39,ESE,104,0.0,3.0,98,0.02,,,0.21,Weather View 32 v70,2013-05-01 20:40:00,
2013-05-01 14:45:00,30.3,29.8,30.41,ESE,104,0.0,3.0,98,0.02,,,0.21,Weather View 32 v70,2013-05-01 20:45:00,
2013-05-01 14:50:00,30.2,29.7,30.40,ESE,104,0.0,3.0,98,0.02,,,0.21,Weather View 32 v70,2013-05-01 20:50:00,
2013-05-01 14:55:00,30.0,29.5,30.40,ESE,104,0.0,2.0,98,0.02,,,0.21,Weather View 32 v70,2013-05-01 20:55:00,
2013-05-01 15:01:00,29.8,29.3,30.41,ESE,104,0.0,2.0,98,0.02,,,0.21,Weather View 32 v70,2013-05-01 21:01:00,
2013-05-01 15:10:00,29.6,29.0,30.42,West,266,0.0,2.0,98,0.02,,,0.22,Weather View 32 v70,2013-05-01 21:10:00,
2013-05-01 15:15:00,29.5,28.9,30.41,West,266,0.0,2.0,98,0.02,,,0.22,Weather View 32 v70,2013-05-01 21:15:00,
2013-05-01 15:20:00,29.5,28.9,30.40,NE,49,0.0,2.0,98,0.02,,,0.22,Weather View 32 v70,2013-05-01 21:20:00,
2013-05-01 15:25:00,29.3,28.7,30.41,NE,49,6.0,6.0,98,0.02,,,0.22,Weather View 32 v70,2013-05-01 21:25:00,
2013-05-01 15:30:00,29.2,28.7,30.42,NE,49,0.0,6.0,98,0.03,,,0.23,Weather View 32 v70,2013-05-01 21:30:00,
2013-05-01 15:40:00,28.8,28.3,30.43,NE,34,0.0,7.0,98,0.02,,,0.23,Weather View 32 v70,2013-05-01 21:40:00,
2013-05-01 15:45:00,28.8,28.4,30.43,NE,34,0.0,7.0,98,0.02,,,0.23,Weather View 32 v70,2013-05-01 21:45:00,
2013-05-01 15:50:00,28.9,28.5,30.42,NE,34,0.0,7.0,98,0.02,,,0.23,Weather View 32 v70,2013-05-01 21:50:00,
2013-05-01 15:55:00,28.8,28.4,30.42,NE,34,0.0,7.0,98,0.02,,,0.23,Weather View 32 v70,2013-05-01 21:55:00,
2013-05-01 16:00:00,28.7,28.3,30.41,NE,34,0.0,7.0,98,0.03,,,0.24,Weather View 32 v70,2013-05-01 22:00:00,
2013-05-01 16:05:00,28.7,28.4,30.42,NE,34,0.0,7.0,99,0.02,,,0.24,Weather View 32 v70,2013-05-01 22:05:00,
2013-05-01 16:15:00,29.1,28.7,30.43,NE,34,0.0,7.0,99,0.02,,,0.24,Weather View 32 v70,2013-05-01 22:15:00,
2013-05-01 16:20:00,29.0,28.6,30.43,NE,34,0.0,7.0,98,0.02,,,0.24,Weather View 32 v70,2013-05-01 22:20:00,
2013-05-01 16:25:00,28.9,28.5,30.44,NE,34,0.0,7.0,98,0.02,,,0.24,Weather View 32 v70,2013-05-01 22:25:00,
2013-05-01 16:30:00,28.7,28.3,30.43,NE,34,3.0,7.0,99,0.02,,,0.25,Weather View 32 v70,2013-05-01 22:30:00,
2013-05-01 16:35:00,28.6,28.2,30.45,North,359,0.0,3.0,99,0.02,,,0.25,Weather View 32 v70,2013-05-01 22:35:00,
2013-05-01 16:45:00,28.1,27.7,30.45,North,359,0.0,3.0,99,0.02,,,0.25,Weather View 32 v70,2013-05-01 22:45:00,
2013-05-01 16:50:00,28.0,27.7,30.46,North,359,0.0,3.0,99,0.02,,,0.25,Weather View 32 v70,2013-05-01 22:50:00,
2013-05-01 16:55:00,28.0,27.7,30.46,North,359,0.0,3.0,99,0.02,,,0.25,Weather View 32 v70,2013-05-01 22:55:00,
2013-05-01 17:00:00,28.3,28.0,30.46,North,359,0.0,3.0,99,0.01,,,0.25,Weather View 32 v70,2013-05-01 23:00:00,
2013-05-01 17:10:00,28.1,27.7,30.47,North,1,0.0,3.0,98,0.01,,,0.25,Weather View 32 v70,2013-05-01 23:10:00,
2013-05-01 17:20:00,27.9,27.5,30.47,North,1,0.0,3.0,98,0.01,,,0.25,Weather View 32 v70,2013-05-01 23:20:00,
2013-05-01 17:25:00,28.0,27.6,30.47,North,1,0.0,3.0,98,0.02,,,0.26,Weather View 32 v70,2013-05-01 23:25:00,
2013-05-01 17:30:00,27.7,27.2,30.47,North,1,0.0,3.0,98,0.01,,,0.26,Weather View 32 v70,2013-05-01 23:30:00,
2013-05-01 17:40:00,27.8,27.3,30.49,North,1,0.0,2.0,98,0.01,,,0.26,Weather View 32 v70,2013-05-01 23:40:00,
2013-05-01 17:45:00,27.8,27.3,30.49,North,1,0.0,2.0,98,0.01,,,0.26,Weather View 32 v70,2013-05-01 23:45:00,
2013-05-01 17:50:00,27.8,27.3,30.49,North,1,0.0,1.0,98,0.01,,,0.26,Weather View 32 v70,2013-05-01 23:50:00,
2013-05-01 17:55:00,27.8,27.3,30.49,North,1,0.0,1.0,98,0.01,,,0.26,Weather View 32 v70,2013-05-01 23:55:00,
2013-05-01 18:00:00,27.9,27.4,30.50,North,359,0.0,1.0,98,0.01,,,0.26,Weather View 32 v70,2013-05-02 00:00:00,
2013-05-01 18:05:00,27.7,27.2,30.50,North,359,0.0,1.0,98,0.01,,,0.26,Weather View 32 v70,2013-05-02 00:05:00,
2013-05-01 18:15:00,27.7,27.2,30.50,North,359,0.0,1.0,98,0.02,,,0.27,Weather View 32 v70,2013-05-02 00:15:00,
2013-05-01 18:20:00,27.8,27.4,30.50,North,359,0.0,1.0,98,0.02,,,0.27,Weather View 32 v70,2013-05-02 00:20:00,
2013-05-01 18:25:00,27.9,27.4,30.50,North,359,0.0,1.0,98,0.01,,,0.27,Weather View 32 v70,2013-05-02 00:25:00,
2013-05-01 18:35:00,27.8,27.3,30.51,North,359,0.0,0.0,98,0.01,,,0.27,Weather View 32 v70,2013-05-02 00:35:00,
2013-05-01 18:40:00,27.8,27.4,30.51,North,359,0.0,0.0,98,0.01,,,0.27,Weather View 32 v70,2013-05-02 00:40:00,
2013-05-01 18:45:00,27.6,27.1,30.51,North,359,0.0,0.0,98,0.01,,,0.27,Weather View 32 v70,2013-05-02 00:45:00,
2013-05-01 18:50:00,27.4,26.9,30.52,North,359,0.0,0.0,98,0.01,,,0.27,Weather View 32 v70,2013-05-02 00:50:00,
2013-05-01 18:55:00,27.3,26.8,30.52,North,359,0.0,0.0,98,0.01,,,0.27,Weather View 32 v70,2013-05-02 00:55:00,
2013-05-01 19:03:00,27.3,26.8,30.52,North,359,0.0,0.0,98,0.01,,,0.27,Weather View 32 v70,2013-05-02 01:03:00,
2013-05-01 19:10:00,27.2,26.7,30.53,North,359,0.0,0.0,98,0.01,,,0.27,Weather View 32 v70,2013-05-02 01:10:00,
2013-05-01 19:15:00,27.2,26.7,30.53,North,359,0.0,0.0,98,0.00,,,0.27,Weather View 32 v70,2013-05-02 01:15:00,
2013-05-01 19:20:00,27.0,26.4,30.53,North,359,0.0,0.0,98,0.00,,,0.27,Weather View 32 v70,2013-05-02 01:20:00,
2013-05-01 19:30:00,26.7,26.1,30.53,North,359,0.0,0.0,98,0.00,,,0.27,Weather View 32 v70,2013-05-02 01:30:00,
2013-05-01 19:40:00,26.4,25.9,30.54,North,359,0.0,0.0,98,0.00,,,0.27,Weather View 32 v70,2013-05-02 01:40:00,
2013-05-01 19:45:00,26.4,26.0,30.54,North,359,0.0,0.0,98,0.00,,,0.27,Weather View 32 v70,2013-05-02 01:45:00,
2013-05-01 19:50:00,26.3,25.9,30.55,North,359,0.0,0.0,98,0.00,,,0.27,Weather View 32 v70,2013-05-02 01:50:00,
2013-05-01 19:55:00,26.4,26.0,30.55,North,359,0.0,0.0,99,0.00,,,0.27,Weather View 32 v70,2013-05-02 01:55:00,
2013-05-01 20:04:00,26.4,26.1,30.55,North,359,0.0,0.0,99,0.00,,,0.27,Weather View 32 v70,2013-05-02 02:04:00,
2013-05-01 20:10:00,26.2,25.9,30.56,North,359,0.0,0.0,99,0.00,,,0.27,Weather View 32 v70,2013-05-02 02:10:00,
2013-05-01 20:15:00,26.2,25.9,30.56,North,359,0.0,0.0,99,0.00,,,0.27,Weather View 32 v70,2013-05-02 02:15:00,
2013-05-01 20:20:00,26.1,25.8,30.57,North,359,0.0,0.0,99,0.00,,,0.27,Weather View 32 v70,2013-05-02 02:20:00,
2013-05-01 20:25:00,26.1,25.9,30.57,North,359,0.0,0.0,99,0.00,,,0.27,Weather View 32 v70,2013-05-02 02:25:00,
2013-05-01 20:35:00,26.3,26.1,30.57,North,359,0.0,0.0,99,0.00,,,0.27,Weather View 32 v70,2013-05-02 02:35:00,
2013-05-01 20:40:00,26.3,26.1,30.57,North,359,0.0,0.0,99,0.00,,,0.27,Weather View 32 v70,2013-05-02 02:40:00,
2013-05-01 20:45:00,26.3,26.1,30.58,North,359,0.0,0.0,99,0.00,,,0.27,Weather View 32 v70,2013-05-02 02:45:00,
2013-05-01 20:50:00,26.3,26.1,30.58,North,359,0.0,0.0,99,0.00,,,0.27,Weather View 32 v70,2013-05-02 02:50:00,
2013-05-01 20:55:00,26.1,25.9,30.58,North,359,0.0,0.0,99,0.00,,,0.27,Weather View 32 v70,2013-05-02 02:55:00,
2013-05-01 21:04:00,25.8,25.5,30.59,North,359,0.0,0.0,99,0.00,,,0.27,Weather View 32 v70,2013-05-02 03:04:00,
2013-05-01 21:10:00,25.7,25.4,30.59,North,359,0.0,0.0,99,0.00,,,0.27,Weather View 32 v70,2013-05-02 03:10:00,
2013-05-01 21:15:00,25.7,25.5,30.59,North,359,0.0,0.0,99,0.00,,,0.27,Weather View 32 v70,2013-05-02 03:15:00,
2013-05-01 21:20:00,25.7,25.5,30.59,North,359,0.0,0.0,99,0.00,,,0.27,Weather View 32 v70,2013-05-02 03:20:00,
2013-05-01 21:25:00,25.8,25.6,30.59,North,359,0.0,0.0,99,0.00,,,0.27,Weather View 32 v70,2013-05-02 03:25:00,
2013-05-01 21:35:00,25.6,25.3,30.60,North,359,0.0,0.0,99,0.00,,,0.27,Weather View 32 v70,2013-05-02 03:35:00,
2013-05-01 21:40:00,25.3,25.0,30.60,North,359,0.0,0.0,99,0.00,,,0.27,Weather View 32 v70,2013-05-02 03:40:00,
2013-05-01 21:45:00,25.3,25.0,30.60,North,359,0.0,0.0,99,0.00,,,0.27,Weather View 32 v70,2013-05-02 03:45:00,
2013-05-01 21:50:00,25.3,25.0,30.60,North,359,0.0,0.0,99,0.00,,,0.27,Weather View 32 v70,2013-05-02 03:50:00,
2013-05-01 21:55:00,25.3,25.0,30.60,North,359,0.0,0.0,99,0.00,,,0.27,Weather View 32 v70,2013-05-02 03:55:00,
2013-05-01 22:05:00,25.3,25.0,30.61,North,359,0.0,0.0,99,0.00,,,0.27,Weather View 32 v70,2013-05-02 04:05:00,
2013-05-01 22:10:00,25.3,25.0,30.61,North,359,0.0,0.0,99,0.00,,,0.27,Weather View 32 v70,2013-05-02 04:10:00,
2013-05-01 22:15:00,25.3,25.0,30.61,North,359,0.0,0.0,99,0.00,,,0.27,Weather View 32 v70,2013-05-02 04:15:00,
2013-05-01 22:20:00,25.4,25.1,30.61,North,359,0.0,0.0,99,0.00,,,0.27,Weather View 32 v70,2013-05-02 04:20:00,
2013-05-01 22:25:00,25.4,25.1,30.61,North,359,0.0,0.0,99,0.00,,,0.27,Weather View 32 v70,2013-05-02 04:25:00,
2013-05-01 22:30:00,25.3,25.0,30.62,North,359,0.0,0.0,99,0.00,,,0.27,Weather View 32 v70,2013-05-02 04:30:00,
2013-05-01 22:35:00,25.3,25.0,30.62,North,359,0.0,0.0,99,0.00,,,0.27,Weather View 32 v70,2013-05-02 04:35:00,
2013-05-01 22:40:00,25.3,25.0,30.62,North,359,0.0,0.0,99,0.00,,,0.27,Weather View 32 v70,2013-05-02 04:40:00,
2013-05-01 22:45:00,25.3,25.0,30.62,North,359,0.0,0.0,99,0.00,,,0.27,Weather View 32 v70,2013-05-02 04:45:00,
2013-05-01 22:50:00,25.3,25.0,30.62,North,359,0.0,0.0,99,0.00,,,0.27,Weather View 32 v70,2013-05-02 04:50:00,
2013-05-01 23:00:00,25.0,24.7,30.61,North,359,0.0,0.0,99,0.00,,,0.27,Weather View 32 v70,2013-05-02 05:00:00,
2013-05-01 23:05:00,24.8,24.5,30.61,North,359,0.0,0.0,99,0.00,,,0.27,Weather View 32 v70,2013-05-02 05:05:00,
2013-05-01 23:10:00,24.7,24.4,30.62,North,359,0.0,0.0,99,0.00,,,0.27,Weather View 32 v70,2013-05-02 05:10:00,
2013-05-01 23:15:00,24.6,24.3,30.62,North,359,0.0,0.0,99,0.00,,,0.27,Weather View 32 v70,2013-05-02 05:15:00,
2013-05-01 23:20:00,24.5,24.2,30.62,North,359,0.0,0.0,99,0.00,,,0.27,Weather View 32 v70,2013-05-02 05:20:00,
2013-05-01 23:30:00,24.2,23.9,30.62,North,359,0.0,0.0,99,0.00,,,0.27,Weather View 32 v70,2013-05-02 05:30:00,
2013-05-01 23:35:00,24.0,23.7,30.62,North,359,0.0,0.0,99,0.00,,,0.27,Weather View 32 v70,2013-05-02 05:35:00,
2013-05-01 23:40:00,23.8,23.5,30.62,North,359,0.0,0.0,99,0.00,,,0.27,Weather View 32 v70,2013-05-02 05:40:00,
2013-05-01 23:45:00,23.7,23.4,30.62,North,359,0.0,0.0,99,0.00,,,0.27,Weather View 32 v70,2013-05-02 05:45:00,
2013-05-01 23:55:00,23.4,23.1,30.62,North,359,0.0,0.0,99,0.00,,,0.27,Weather View 32 v70,2013-05-02 05:55:00,